Weather History for Newport, VT

Change the Weather History Date:

Friday, January 24, 2014

  Actual Average Record
Temperature  
Mean Temperature -2 °F -  
Max Temperature 10 °F 28 °F 49 °F (1967)
Min Temperature -14 °F 8 °F -30 °F (1976)
Degree Days  
Heating Degree Days 67    
Moisture  
Dew Point -13 °F    
Average Humidity 56    
Maximum Humidity 73    
Minimum Humidity 33    
Precipitation  
Precipitation 0.00 in - - ()
Sea Level Pressure  
Sea Level Pressure 30.04 in    
Wind  
Wind Speed 3 mph (SSE)    
Max Wind Speed 16 mph    
Max Gust Speed 21 mph    
Visibility 8 miles    
Events Snow    
Averages and records for this station are not official NWS values.
T = Trace of Precipitation, MM = Missing Value Source: NWS Daily Summary

Daily Weather History Graph

Daily Weather History Graph

Search for Another Location

Airport:

Trip Planner

Search our weather history database for the weather conditions in past years. The results will help you decide how hot, cold, wet, or windy it might be!

Date:

Astronomy

Jan. 24, 2014 Rise Set
Actual Time 7:16 AM EST 4:45 PM EST
Civil Twilight 6:44 AM EST 5:17 PM EST
Nautical Twilight 6:09 AM EST 5:53 PM EST
Astronomical Twilight 5:34 AM EST 6:28 PM EST
Moon 12:37 AM EST (1/24) 11:05 AM EST (1/24)
Length of Visible Light 10h 33m
Length of Day
9h 29m
Last Quarter, 45% of the Moon is Illuminated
Jan 24
Last Quarter
Jan 30
New
Feb 6
First Quarter
Feb 14
Full
Feb 22
Last Quarter

Hourly Weather History & Observations

Time (EST) Temp. Windchill Dew Point Humidity Pressure Visibility Wind Dir Wind Speed Gust Speed Precip Events Conditions
12:15 AM -7.6 °F - -14.8 °F 71% 30.11 in 10.0 mi Calm Calm - N/A   Clear
12:35 AM -5.8 °F - -13.9 °F 68% 30.11 in 10.0 mi Calm Calm - N/A   Clear
12:55 AM -7.2 °F - -14.8 °F 70% 30.11 in 10.0 mi Calm Calm - N/A   Clear
1:15 AM -6.3 °F - -16.2 °F 62% 30.11 in 10.0 mi Calm Calm - N/A   Clear
1:35 AM -9.8 °F - -16.8 °F 71% 30.12 in 10.0 mi Calm Calm - N/A   Clear
1:55 AM -8.1 °F - -14.8 °F 73% 30.12 in 10.0 mi Calm Calm - N/A   Clear
2:15 AM -7.1 °F - -14.4 °F 70% 30.12 in 10.0 mi Calm Calm - N/A   Clear
2:35 AM -10.5 °F - -18.8 °F 67% 30.12 in 7.0 mi Calm Calm - N/A   Clear
2:55 AM -9.4 °F - -16.2 °F 72% 30.12 in 7.0 mi Calm Calm - N/A   Clear
3:15 AM -8.5 °F - -15.3 °F 72% 30.12 in 10.0 mi Calm Calm - N/A   Clear
3:35 AM -11.2 °F - -19.3 °F 67% 30.12 in 7.0 mi Calm Calm - N/A   Clear
3:55 AM -11.7 °F - -18.6 °F 72% 30.13 in 7.0 mi Calm Calm - N/A   Clear
4:15 AM -9.9 °F - -16.4 °F 73% 30.14 in 5.0 mi Calm Calm - N/A   Haze
4:35 AM -9.6 °F - -16.1 °F 73% 30.14 in 3.0 mi Calm Calm - N/A   Haze
4:55 AM -10.8 °F - -17.9 °F 71% 30.14 in 4.0 mi Calm Calm - N/A   Haze
5:15 AM -12.1 °F - -19.7 °F 69% 30.14 in 3.0 mi Calm Calm - N/A Snow Light Snow
5:35 AM -11.4 °F - -18.8 °F 70% 30.15 in 7.0 mi Calm Calm - N/A   Clear
5:55 AM -13.2 °F - -21.3 °F 67% 30.16 in 4.0 mi Calm Calm - N/A   Haze
6:15 AM -14.1 °F - -21.3 °F 70% 30.17 in 4.0 mi Calm Calm - N/A   Haze
6:35 AM -10.8 °F - -18.2 °F 70% 30.18 in 5.0 mi Calm Calm - N/A   Haze
6:55 AM -11.4 °F - -18.8 °F 70% 30.18 in 5.0 mi Calm Calm - N/A   Haze
7:15 AM -11.9 °F -21.5 °F -19.7 °F 68% 30.18 in 4.0 mi SE 3.5 mph - N/A   Haze
7:35 AM -9.6 °F - -16.2 °F 73% 30.19 in 4.0 mi Calm Calm - N/A   Haze
7:55 AM -13.4 °F - -21.6 °F 67% 30.18 in 4.0 mi Calm Calm - N/A   Haze
8:15 AM -9.8 °F - -16.4 °F 72% 30.18 in 4.0 mi Calm Calm - N/A   Haze
8:35 AM -9.2 °F - -16.4 °F 71% 30.18 in 4.0 mi Calm Calm - N/A   Haze
8:55 AM -8.1 °F - -15.3 °F 71% 30.18 in 3.0 mi Calm Calm - N/A   Haze
9:15 AM -8.7 °F - -15.9 °F 71% 30.18 in 4.0 mi Calm Calm - N/A   Haze
9:35 AM -6.0 °F -16.9 °F -13.9 °F 69% 30.18 in 10.0 mi ENE 4.6 mph - N/A   Clear
9:55 AM -3.5 °F -11.8 °F -11.6 °F 68% 30.18 in 10.0 mi East 3.5 mph - N/A   Clear
10:15 AM -2.0 °F -10.1 °F -11.6 °F 64% 30.18 in 10.0 mi East 3.5 mph - N/A   Clear
10:35 AM -0.6 °F -13.6 °F -12.1 °F 58% 30.17 in 10.0 mi East 6.9 mph - N/A   Clear
10:55 AM 0.5 °F - -12.8 °F 54% 30.16 in 10.0 mi Calm Calm - N/A   Clear
11:15 AM 1.2 °F -6.4 °F -12.6 °F 52% 30.15 in 10.0 mi SSW 3.5 mph - N/A   Clear
11:35 AM 1.6 °F -8.0 °F -13.0 °F 51% 30.14 in 10.0 mi West 4.6 mph - N/A   Clear
11:55 AM 2.5 °F -10.0 °F -13.0 °F 49% 30.13 in 10.0 mi West 6.9 mph - N/A   Clear
12:15 PM 3.2 °F -4.2 °F -12.8 °F 47% 30.12 in 10.0 mi NW 3.5 mph - N/A   Clear
12:35 PM 4.1 °F -11.1 °F -12.8 °F 46% 30.10 in 10.0 mi West 10.4 mph - N/A   Clear
12:55 PM 4.8 °F -7.1 °F -12.5 °F 45% 30.09 in 10.0 mi SW 6.9 mph - N/A   Clear
1:15 PM 5.7 °F -1.3 °F -12.3 °F 43% 30.08 in 10.0 mi SSW 3.5 mph - N/A   Clear
1:35 PM 6.6 °F -5.0 °F -12.8 °F 41% 30.06 in 10.0 mi South 6.9 mph - N/A   Clear
1:55 PM 7.3 °F -2.8 °F -12.8 °F 39% 30.05 in 10.0 mi SSE 5.8 mph - N/A   Clear
2:15 PM 7.5 °F 0.8 °F -13.0 °F 39% 30.04 in 10.0 mi South 3.5 mph - N/A   Clear
2:35 PM 8.6 °F 0.1 °F -12.5 °F 38% 30.02 in 10.0 mi ESE 4.6 mph - N/A   Clear
2:55 PM 9.1 °F -0.7 °F -14.3 °F 34% 30.02 in 10.0 mi South 5.8 mph - N/A   Clear
3:15 PM 9.3 °F -1.7 °F -14.6 °F 33% 30.01 in 10.0 mi South 6.9 mph - N/A   Clear
3:35 PM 9.1 °F -0.7 °F -14.1 °F 34% 30.00 in 10.0 mi South 5.8 mph - N/A   Clear
3:55 PM 9.3 °F -0.5 °F -13.4 °F 35% 29.99 in 10.0 mi South 5.8 mph - N/A   Clear
4:15 PM 8.8 °F -1.1 °F -13.2 °F 36% 29.98 in 10.0 mi South 5.8 mph - N/A   Clear
4:35 PM 6.8 °F -4.8 °F -12.6 °F 41% 29.97 in 10.0 mi SSE 6.9 mph - N/A   Clear
4:55 PM 5.9 °F -5.8 °F -12.1 °F 44% 29.96 in 10.0 mi South 6.9 mph - N/A   Clear
5:15 PM 7.5 °F -2.6 °F -11.7 °F 41% 29.96 in 10.0 mi SSE 5.8 mph - N/A   Clear
5:35 PM 5.5 °F -5.0 °F -11.4 °F 46% 29.97 in 10.0 mi SE 5.8 mph - N/A   Clear
5:55 PM 2.3 °F -7.2 °F -13.0 °F 49% 29.96 in 10.0 mi SE 4.6 mph - N/A   Clear
6:15 PM 5.4 °F -9.6 °F -9.6 °F 50% 29.95 in 10.0 mi SSE 10.4 mph - N/A   Clear
6:35 PM 6.8 °F -6.9 °F -10.3 °F 46% 29.94 in 10.0 mi South 9.2 mph - N/A   Scattered Clouds
6:55 PM 7.3 °F -7.9 °F -10.3 °F 45% 29.93 in 10.0 mi South 11.5 mph 17.3 mph N/A   Scattered Clouds
7:15 PM 7.5 °F -9.1 °F -9.9 °F 45% 29.92 in 10.0 mi SSE 13.8 mph 18.4 mph N/A   Scattered Clouds
7:35 PM 7.5 °F -8.4 °F -9.6 °F 46% 29.92 in 10.0 mi SSE 12.7 mph 18.4 mph N/A   Clear
7:55 PM 7.7 °F -9.5 °F -9.2 °F 46% 29.90 in 10.0 mi SSE 15.0 mph - N/A   Clear
8:15 PM 7.7 °F -8.9 °F -8.3 °F 48% 29.89 in 10.0 mi SSE 13.8 mph - N/A   Mostly Cloudy
8:35 PM 7.7 °F -7.4 °F -7.6 °F 50% 29.88 in 10.0 mi SSE 11.5 mph - N/A   Mostly Cloudy
8:55 PM 8.1 °F -7.0 °F -6.7 °F 51% 29.87 in 10.0 mi SSE 11.5 mph - N/A   Mostly Cloudy
9:15 PM 8.2 °F -8.2 °F -6.7 °F 51% 29.86 in 10.0 mi SSE 13.8 mph - N/A   Overcast
9:35 PM 8.6 °F -8.3 °F -6.2 °F 51% 29.84 in 10.0 mi SSE 15.0 mph 20.7 mph N/A   Overcast
9:55 PM 9.1 °F -7.0 °F -6.0 °F 50% 29.83 in 10.0 mi SSE 13.8 mph 19.6 mph N/A   Overcast
10:15 PM 9.5 °F -7.8 °F -5.6 °F 50% 29.81 in 10.0 mi SSE 16.1 mph 20.7 mph N/A   Overcast
10:35 PM 9.5 °F -7.2 °F -5.3 °F 51% 29.80 in 10.0 mi SSE 15.0 mph 19.6 mph N/A   Overcast
10:55 PM 9.5 °F -5.9 °F -5.1 °F 52% 29.79 in 10.0 mi SSE 12.7 mph - N/A   Overcast
11:15 PM 10.2 °F -0.6 °F -4.5 °F 51% 29.79 in 10.0 mi SE 6.9 mph 17.3 mph N/A   Overcast
11:35 PM 10.4 °F -3.3 °F -4.2 °F 52% 29.77 in 10.0 mi SSE 10.4 mph - N/A   Scattered Clouds
11:55 PM 10.8 °F -5.6 °F -3.6 °F 52% 29.75 in 10.0 mi SSE 15.0 mph - N/A   Mostly Cloudy